EW1979 Weather Reports


time (UTC)temp
F
wind
direction
speed
knots
gust
knots
rain 1hr
in
rain 24hr
in
rain mn
in
humidity
%
barometer
mb
20260506061602 73 159 0.0 0.0 0.00 0.00 0.00 34 1005.2
20260506050109 74 153 0.0 0.0 0.00 0.00 0.00 41 1005.1
20260506044551 74 144 0.0 0.0 0.00 0.00 0.00 41 1005.5
20260506043043 74 146 0.0 0.0 0.00 0.00 0.00 44 1005.1
20260506041538 74 130 0.0 0.0 0.00 0.00 0.00 48 1005.1
20260506040032 74 152 0.0 0.0 0.00 0.00 0.00 57 1004.9
20260506034529 74 152 0.0 0.0 0.00 0.00 0.00 63 1004.7
20260506033025 74 152 0.0 0.0 0.00 0.00 0.00 68 1004.6
20260506031520 74 152 0.0 0.0 0.00 0.00 0.00 71 1004.4
20260506030021 75 153 0.0 0.0 0.00 0.00 0.00 74 1004.1
20260506024530 75 153 0.0 0.0 0.00 0.00 0.00 76 1004.0
20260506023006 75 165 0.0 0.0 0.00 0.00 0.00 77 1003.6
20260506021502 75 171 0.0 0.0 0.00 0.00 0.00 78 1003.4
20260506020057 76 171 0.0 0.0 0.00 0.00 0.00 78 1003.1
20260506014554 76 171 0.0 0.0 0.00 0.00 0.00 78 1002.9
20260506013102 77 180 0.0 0.0 0.00 0.00 0.00 78 1002.7
20260506011602 77 183 0.0 0.0 0.00 0.00 0.00 77 1002.4
20260506010045 78 192 0.0 0.0 0.00 0.00 0.00 76 1002.2
20260506004540 79 165 0.0 0.0 0.00 0.00 0.00 75 1002.5
20260506003037 80 165 0.0 0.0 0.00 0.00 0.00 74 1002.5
20260506001538 80 165 0.0 0.0 0.00 0.00 0.00 73 1002.5
20260506000032 80 173 0.0 0.0 0.00 0.00 0.00 71 1002.6
20260505234523 80 181 0.0 0.0 0.00 0.00 0.00 70 1002.4
20260505233019 81 161 0.0 0.0 0.00 0.00 0.00 69 1002.4
20260505231514 80 186 0.0 0.0 0.00 0.00 0.00 71 1002.5
20260505230010 80 165 0.0 0.0 0.00 0.00 0.00 71 1002.3
20260505224505 81 178 0.0 0.0 0.00 0.00 0.00 70 1002.3
20260505223001 81 197 0.0 0.0 0.00 0.00 0.00 70 1002.2
20260505221601 81 200 0.0 0.0 0.00 0.00 0.00 69 1002.2
20260505220053 81 177 0.0 0.0 0.00 0.00 0.00 71 1002.2
20260505214612 82 198 0.0 0.0 0.00 0.00 0.00 70 1002.2
20260505213046 81 195 0.0 0.0 0.00 0.00 0.00 70 1002.2
20260505211541 82 240 0.0 0.0 0.00 0.00 0.00 69 1002.6
20260505210038 81 194 0.0 0.0 0.00 0.00 0.00 71 1002.8
20260505204535 81 160 0.0 0.0 0.00 0.00 0.00 69 1003.1
20260505203028 81 206 0.0 0.0 0.00 0.00 0.00 70 1003.3
20260505201524 80 206 0.0 0.0 0.00 0.00 0.00 71 1003.5
20260505200020 79 178 0.0 0.0 0.00 0.00 0.00 73 1003.7
20260505194515 79 183 0.0 0.0 0.00 0.00 0.00 72 1004.0
20260505193012 78 175 0.0 0.0 0.00 0.00 0.00 72 1004.1
20260505191506 78 210 0.0 0.0 0.00 0.00 0.00 73 1004.2
20260505190002 78 198 0.0 0.0 0.00 0.00 0.00 71 1004.3
20260505184557 76 194 0.0 0.0 0.00 0.00 0.00 68 1004.8
20260505183104 74 198 0.0 0.0 0.00 0.00 0.00 15 1005.8
20260505181551 72 215 0.0 0.0 0.00 0.00 0.00 100 1006.0
20260505180050 71 202 0.0 0.0 0.00 0.00 0.00 100 1006.1
20260505174550 70 206 0.0 0.0 0.00 0.00 0.00 100 1006.4
20260505173036 69 208 0.0 0.0 0.00 0.00 0.00 100 1006.4
20260505171531 69 197 0.0 0.0 0.00 0.00 0.00 100 1006.3
20260505170028 69 196 0.0 0.0 0.00 0.00 0.00 100 1006.6
20260505164522 69 200 0.0 0.0 0.00 0.00 0.00 100 1006.2
20260505163020 68 205 0.0 0.0 0.00 0.00 0.00 100 1006.2
20260505161517 68 195 0.0 0.0 0.00 0.00 0.00 100 1006.3
20260505153109 67 219 0.0 0.0 0.00 0.00 0.00 100 1006.1
20260505151607 67 186 0.0 0.0 0.00 0.00 0.00 100 1006.2
20260505124609 66 187 0.0 0.0 0.00 0.00 0.00 100 1005.1
20260505121502 66 192 0.0 0.0 0.00 0.00 0.00 100 1004.9
20260505114504 66 200 0.0 0.0 0.00 0.00 0.00 100 1004.3
20260505113008 66 209 0.0 0.0 0.00 0.00 0.00 100 1004.2
20260505100037 66 180 0.0 0.0 0.00 0.00 0.00 3 1004.3
20260505094507 66 196 0.0 0.0 0.00 0.00 0.00 6 1004.4
20260505093003 66 178 0.0 0.0 0.00 0.00 0.00 8 1004.5
20260505084603 67 169 0.0 0.0 0.00 0.00 0.00 15 1004.5
20260505083008 67 198 0.0 0.0 0.00 0.00 0.00 18 1004.6
20260505081635 67 194 0.0 0.0 0.00 0.00 0.00 21 1004.9
20260505073004 67 182 0.0 0.0 0.00 0.00 0.00 27 1005.4
20260505071510 67 167 0.0 0.0 0.00 0.00 0.00 28 1005.6
20260505070003 67 161 0.0 0.0 0.00 0.00 0.00 29 1005.7
20260505064508 67 206 0.0 0.0 0.00 0.00 0.00 30 1005.9